Oakland, CA

9:17 AM PST on December 12, 2019 (GMT -0800)
Metro Oakland International

Weather History for KOAK - October, 2019

Change the Weather History Date:

Wednesday, October 2, 2019

  Actual Average Record
Temperature  
Mean Temperature 62 °F 63 °F  
Max Temperature 75 °F 72 °F 98 °F (1980)
Min Temperature 48 °F 53 °F 43 °F (1950)
Degree Days  
Heating Degree Days 3 3  
Month to date heating degree days 9 6  
Since 1 July heating degree days 39 206  
Cooling Degree Days 0 1  
Month to date cooling degree days 0 2  
Year to date cooling degree days 364 127  
Growing Degree Days 12 (Base 50)    
Moisture  
Dew Point 46 °F    
Average Humidity 59    
Maximum Humidity 83    
Minimum Humidity 35    
Precipitation  
Precipitation 0.00 in 0.02 in 0.37 in (1967)
Month to date precipitation 0.00 0.03  
Year to date precipitation 15.94 13.53  
Sea Level Pressure  
Sea Level Pressure 30.02 in    
Wind  
Wind Speed 7 mph (NW)    
Max Wind Speed 17 mph    
Max Gust Speed 19 mph    
Visibility 10 miles    
Events      
T = Trace of Precipitation, MM = Missing Value Source: NWS Daily Summary

Daily Weather History Graph

Daily Weather History Graph

Search for Another Location

Airport or City:

Astronomy

Oct. 02, 2019 Rise Set
Actual Time 7:05 AM PDT 6:50 PM PDT
Civil Twilight 6:39 AM PDT 7:16 PM PDT
Nautical Twilight 6:08 AM PDT 7:47 PM PDT
Astronomical Twilight 5:38 AM PDT 8:17 PM PDT
Moon 11:32 AM PDT (10/2) 9:53 PM PDT (10/2)
Length of Visible Light 12h 37m
Length of Day
11h 45m
Waxing Crescent, 21% of the Moon is Illuminated
Oct 2
Waxing Crescent
Oct 5
First Quarter
Oct 13
Full
Oct 21
Last Quarter
Oct 27
New

Hourly Weather History & Observations

Time (PDT) Temp. Dew Point Humidity Pressure Visibility Wind Dir Wind Speed Gust Speed Precip Events Conditions
12:53 AM 53.1 °F 44.1 °F 71% 30.02 in 10.0 mi ENE 3.5 mph - N/A   Clear
1:53 AM 51.1 °F 43.0 °F 74% 30.02 in 10.0 mi NE 4.6 mph - N/A   Clear
2:53 AM 51.1 °F 43.0 °F 74% 30.02 in 10.0 mi NE 4.6 mph - N/A   Clear
3:53 AM 51.1 °F 45.0 °F 80% 30.02 in 10.0 mi NE 3.5 mph - N/A   Clear
4:53 AM 50.0 °F 44.1 °F 80% 30.03 in 10.0 mi ENE 4.6 mph - N/A   Partly Cloudy
5:53 AM 50.0 °F 44.1 °F 80% 30.03 in 10.0 mi ENE 4.6 mph - N/A   Clear
6:53 AM 48.0 °F 43.0 °F 83% 30.04 in 10.0 mi Calm Calm - N/A   Clear
7:53 AM 52.0 °F 46.9 °F 83% 30.06 in 10.0 mi Calm Calm - N/A   Clear
8:53 AM 57.9 °F 45.0 °F 62% 30.07 in 10.0 mi SE 5.8 mph - N/A   Clear
9:53 AM 62.1 °F 43.0 °F 50% 30.07 in 10.0 mi South 5.8 mph - N/A   Clear
10:53 AM 62.1 °F 46.0 °F 56% 30.07 in 10.0 mi SW 5.8 mph - N/A   Clear
11:53 AM 66.0 °F 46.9 °F 50% 30.06 in 10.0 mi WSW 5.8 mph - N/A   Clear
12:53 PM 71.1 °F 43.0 °F 36% 30.04 in 10.0 mi NW 9.2 mph - N/A   Clear
1:53 PM 71.1 °F 45.0 °F 39% 30.02 in 10.0 mi West 10.4 mph - N/A   Clear
2:53 PM 75.0 °F 48.9 °F 40% 30.00 in 10.0 mi NW 10.4 mph - N/A   Clear
3:53 PM 72.0 °F 46.0 °F 40% 29.99 in 10.0 mi WNW 12.7 mph - N/A   Clear
4:53 PM 69.1 °F 46.9 °F 45% 29.99 in 10.0 mi WNW 13.8 mph - N/A   Clear
5:53 PM 66.9 °F 44.1 °F 44% 29.99 in 10.0 mi WNW 10.4 mph - N/A   Clear
6:53 PM 63.0 °F 46.9 °F 56% 29.99 in 10.0 mi NW 6.9 mph - N/A   Clear
7:53 PM 62.1 °F 46.9 °F 58% 29.99 in 10.0 mi WNW 6.9 mph - N/A   Clear
8:53 PM 61.0 °F 50.0 °F 67% 29.99 in 10.0 mi West 9.2 mph - N/A   Clear
9:53 PM 60.1 °F 48.0 °F 64% 30.00 in 10.0 mi West 8.1 mph - N/A   Clear
10:53 PM 59.0 °F 48.0 °F 67% 30.00 in 10.0 mi West 4.6 mph - N/A   Clear
11:53 PM 57.9 °F 50.0 °F 75% 30.01 in 10.0 mi WNW 8.1 mph - N/A   Clear